TimeCST,TemperatureF,Dew PointF,Humidity,Sea Level PressureIn,VisibilityMPH,Wind Direction,Wind SpeedMPH,Gust SpeedMPH,PrecipitationIn,Events,Conditions,WindDirDegrees,DateUTC
12:53 AM,-0.9,-4.0,87,29.96,10.0,SSW,5.8,-,N/A,,Clear,210,2014-01-18 06:53:00
1:53 AM,-0.9,-2.9,91,29.94,10.0,South,4.6,-,N/A,,Clear,180,2014-01-18 07:53:00
2:53 AM,1.9,-0.9,88,29.92,10.0,South,4.6,-,N/A,,Mostly Cloudy,190,2014-01-18 08:53:00
3:53 AM,5.0,3.0,92,29.88,10.0,South,9.2,-,N/A,,Overcast,180,2014-01-18 09:53:00
4:53 AM,7.0,3.9,87,29.82,10.0,SE,11.5,-,N/A,,Overcast,140,2014-01-18 10:53:00
5:53 AM,10.0,6.1,84,29.80,10.0,SSE,11.5,-,N/A,,Overcast,160,2014-01-18 11:53:00
6:13 AM,10.0,7.0,87,29.71,2.5,SSE,15.0,-,0.00,Snow,Light Snow,160,2014-01-18 12:13:00
6:23 AM,10.0,7.0,87,29.71,1.5,SSE,16.1,-,0.00,Snow,Light Snow,160,2014-01-18 12:23:00
6:42 AM,10.9,8.1,88,29.70,1.0,SSE,15.0,-,0.00,Snow,Light Snow,160,2014-01-18 12:42:00
6:53 AM,10.9,8.1,88,29.76,0.8,SSE,15.0,-,0.01,Snow,Light Snow,160,2014-01-18 12:53:00
7:00 AM,10.9,9.0,92,29.68,0.5,SSE,17.3,-,0.01,Fog-Snow,Snow,150,2014-01-18 13:00:00
7:53 AM,12.0,9.0,88,29.70,0.5,SSE,20.7,-,0.05,Fog-Snow,Snow,150,2014-01-18 13:53:00
8:10 AM,12.0,10.0,92,29.63,0.2,SSE,19.6,-,0.01,Fog-Snow,Heavy Snow,150,2014-01-18 14:10:00
8:18 AM,12.9,10.0,88,29.63,0.5,SE,20.7,26.5,0.02,Fog-Snow,Snow,140,2014-01-18 14:18:00
8:32 AM,12.9,10.9,92,29.62,0.2,SE,23.0,-,0.02,Fog-Snow,Snow,140,2014-01-18 14:32:00
8:42 AM,12.9,10.9,92,29.61,0.5,SE,20.7,-,0.02,Fog-Snow,Snow,130,2014-01-18 14:42:00
8:53 AM,12.9,10.9,92,29.69,0.5,SE,20.7,-,0.03,Fog-Snow,Snow,140,2014-01-18 14:53:00
9:18 AM,14.0,12.9,95,29.63,0.2,SSE,21.9,-,0.01,Fog-Snow,Heavy Snow,160,2014-01-18 15:18:00
9:29 AM,15.1,12.0,88,29.63,0.5,SE,21.9,-,0.01,Fog-Snow,Snow,140,2014-01-18 15:29:00
9:50 AM,15.8,12.2,86,29.63,1.0,SE,20.7,25.3,0.02,Snow,Light Snow,140,2014-01-18 15:50:00
9:53 AM,15.1,12.0,88,29.70,1.0,SSE,19.6,26.5,0.02,Snow,Light Snow,150,2014-01-18 15:53:00
10:01 AM,15.1,12.0,88,29.63,2.0,SE,18.4,26.5,0.00,Snow,Light Snow,140,2014-01-18 16:01:00
10:21 AM,15.1,12.0,88,29.63,1.2,SE,21.9,-,0.00,Snow,Light Snow,140,2014-01-18 16:21:00
10:30 AM,15.1,12.9,91,29.63,1.0,SE,21.9,-,0.00,Snow,Light Snow,130,2014-01-18 16:30:00
10:53 AM,16.0,12.9,88,29.70,0.8,SE,19.6,-,0.00,Snow,Light Snow,130,2014-01-18 16:53:00
11:09 AM,16.0,14.0,92,29.63,0.5,SE,16.1,24.2,0.01,Fog-Snow,Snow,130,2014-01-18 17:09:00
11:31 AM,17.1,14.0,88,29.63,0.8,ESE,13.8,-,0.01,Snow,Light Snow,120,2014-01-18 17:31:00
11:38 AM,17.1,14.0,88,29.63,1.0,ESE,13.8,-,0.01,Snow,Light Snow,120,2014-01-18 17:38:00
11:53 AM,17.1,14.0,88,29.70,1.2,ESE,12.7,-,0.01,Snow,Light Snow,110,2014-01-18 17:53:00
12:08 PM,17.1,14.0,88,29.63,2.5,ESE,13.8,-,0.00,Snow,Light Snow,110,2014-01-18 18:08:00
12:21 PM,17.1,14.0,88,29.62,1.5,East,11.5,-,0.00,Snow,Light Snow,100,2014-01-18 18:21:00
12:53 PM,18.0,15.1,88,29.69,2.0,East,10.4,-,0.01,Snow,Light Snow,80,2014-01-18 18:53:00
1:10 PM,18.0,15.1,88,29.63,2.0,ENE,11.5,-,0.00,Snow,Light Snow,70,2014-01-18 19:10:00
1:21 PM,18.0,15.1,88,29.63,1.8,ENE,9.2,-,0.00,Snow,Light Snow,70,2014-01-18 19:21:00
1:53 PM,19.0,15.1,85,29.73,1.5,NE,10.4,-,0.00,,Overcast,50,2014-01-18 19:53:00
2:40 PM,18.0,14.0,84,29.69,1.5,NNE,15.0,-,N/A,,Overcast,30,2014-01-18 20:40:00
2:53 PM,18.0,14.0,84,29.78,2.0,NE,16.1,-,N/A,,Overcast,40,2014-01-18 20:53:00
3:07 PM,18.0,14.0,84,29.72,1.8,NE,16.1,-,N/A,,Overcast,50,2014-01-18 21:07:00
3:51 PM,17.6,14.0,86,29.75,2.0,NE,15.0,-,0.00,Snow,Light Snow,50,2014-01-18 21:51:00
3:52 PM,17.1,14.0,88,29.82,2.0,NE,16.1,-,0.00,Snow,Light Snow,50,2014-01-18 21:52:00
3:54 PM,17.1,12.9,84,29.76,5.0,ENE,13.8,-,0.00,,Overcast,60,2014-01-18 21:54:00
4:53 PM,15.1,10.9,84,29.88,10.0,NE,11.5,-,0.00,,Partly Cloudy,40,2014-01-18 22:53:00
5:53 PM,12.9,10.0,88,29.90,10.0,NE,8.1,-,N/A,,Partly Cloudy,40,2014-01-18 23:53:00
6:53 PM,12.0,9.0,88,29.95,10.0,North,9.2,-,N/A,,Clear,10,2014-01-19 00:53:00
7:53 PM,10.0,7.0,87,29.97,10.0,NW,10.4,-,N/A,,Clear,320,2014-01-19 01:53:00
8:53 PM,10.0,8.1,92,29.97,10.0,NW,5.8,-,N/A,,Clear,310,2014-01-19 02:53:00
9:53 PM,5.0,5.0,100,29.96,10.0,Calm,Calm,-,N/A,,Clear,0,2014-01-19 03:53:00
10:53 PM,9.0,7.0,92,29.95,10.0,West,10.4,-,N/A,,Clear,280,2014-01-19 04:53:00
11:53 PM,6.1,3.0,87,29.92,10.0,SW,8.1,-,N/A,,Clear,230,2014-01-19 05:53:00